(228383) = 2000 WO187

Discovered at Anderson Mesa on 2000-11-16 by LONEOS.

Orbit

Orbit type: Main Belt

Note: WebGL enabled browser required.

epoch2024-03-31.0
epoch JD2460400.5
perihelion date2022-07-15.58819
perihelion JD2459776.08819
argument of perihelion (°)83.00232
ascending node (°)268.41595
inclination (°)14.50897
eccentricity0.3190746
perihelion distance (AU)1.8278997
Tisserand w.r.t. Jupiter3.3
ΔV w.r.t. Earth (km/sec)9.5
semimajor axis (AU)2.6844346
mean anomaly (°)139.92512
mean daily motion (°/day)0.22409110
aphelion distance (AU)3.541
period (years)4.4
P-vector [x]0.95716207
P-vector [y]-0.23501738
P-vector [z]0.16913782
Q-vector [x]0.14533625
Q-vector [y]0.89516750
Q-vector [z]0.42136982
absolute magnitude15.85
phase slope0.15
uncertainty0
referenceMPEC 2024-E23
observations used579
oppositions14
arc length (days)8576
first opposition used2000
last opposition used2024
residual rms (arc-secs)0.66
perturbers coarse indicatorM-v
perturbers precise indicator003Ek
first observation date used2000-09-08.0
last observation date used2024-03-02.0
computer nameMPCLINUX
JD of orbit computation2456639.623072
perihelion JD uncertainty (days)6.4546E-05
argument of perihelion uncertainty (°)4.2443E-05
ascending node uncertainty (°)3.2427E-05
inclination uncertainty (°)6.6735E-06
eccentricity uncertainty 7.8565E-08
perihelion distance uncertainty (AU)2.1473E-07
Minimum Orbit Intersection Distances (in AU)
for orbit epoch: 2460400.5, reference: E2024-E23
Mercury1.47959
Venus1.15682
Earth0.88832
Mars0.61942
Jupiter2.19522
Saturn5.99153
Uranus15.0512
Neptune27.0716

Observations

586 total observations over interval: 2000 09 08.40602 – 2024 03 02.451646
These data are available for download (format description).

Date (UT) J2000 RA J2000 Dec Magn Location Ref
2000 09 08.40602 02 35 36.72 +37 44 01.7 17.9   704 – Lincoln Laboratory ETS, New Mexico MPS 34369
2000 09 08.41989 02 35 37.20 +37 44 07.4 18.1   704 – Lincoln Laboratory ETS, New Mexico MPS 34369
2000 09 08.43373 02 35 37.59 +37 44 13.6 18.0   704 – Lincoln Laboratory ETS, New Mexico MPS 34369
2000 09 08.44757 02 35 38.03 +37 44 20.1 17.8   704 – Lincoln Laboratory ETS, New Mexico MPS 34369
2000 09 08.46140 02 35 38.47 +37 44 25.9 18.3   704 – Lincoln Laboratory ETS, New Mexico MPS 34369
2000 10 06.35286 02 37 09.16 +39 10 53.5 18.0   704 – Lincoln Laboratory ETS, New Mexico MPS 34369
2000 10 06.36912 02 37 08.65 +39 10 51.5 18.7   704 – Lincoln Laboratory ETS, New Mexico MPS 34369
2000 10 06.38453 02 37 08.14 +39 10 48.6 18.9   704 – Lincoln Laboratory ETS, New Mexico MPS 34369
2000 10 06.41535 02 37 07.14 +39 10 44.8 18.7   704 – Lincoln Laboratory ETS, New Mexico MPS 34369
2000 11 06.19483 02 13 06.95 +34 53 33.8 17.7   704 – Lincoln Laboratory ETS, New Mexico MPS 34369
2000 11 06.20854 02 13 06.28 +34 53 21.8 17.8   704 – Lincoln Laboratory ETS, New Mexico MPS 34369
2000 11 06.22229 02 13 05.64 +34 53 11.1 17.9   704 – Lincoln Laboratory ETS, New Mexico MPS 34369
2000 11 06.25133 02 13 04.22 +34 52 47.6 18.3   704 – Lincoln Laboratory ETS, New Mexico MPS 34369
2000 11 16.07255 02 06 29.50 +32 30 10.8 18.0 R 699 – Lowell Observatory-LONEOS MPS 25340
2000 11 16.08825 02 06 28.89 +32 29 56.6   699 – Lowell Observatory-LONEOS MPS 25340
2000 11 16.10388 02 06 28.39 +32 29 43.4   699 – Lowell Observatory-LONEOS MPS 25340
2000 11 16.11972 02 06 27.86 +32 29 29.6   699 – Lowell Observatory-LONEOS MPS 25340
2000 11 19.19221 02 04 56.26 +31 43 12.9 18.8   704 – Lincoln Laboratory ETS, New Mexico MPS 25340
2000 11 19.20916 02 04 55.67 +31 42 57.6 18.5   704 – Lincoln Laboratory ETS, New Mexico MPS 25340
2000 11 19.22366 02 04 55.25 +31 42 44.6 18.2   704 – Lincoln Laboratory ETS, New Mexico MPS 25340
2000 11 19.23804 02 04 54.84 +31 42 31.1 18.2   704 – Lincoln Laboratory ETS, New Mexico MPS 25340
2000 11 19.25241 02 04 54.37 +31 42 18.2 18.4   704 – Lincoln Laboratory ETS, New Mexico MPS 25340
2000 11 30.21846 02 01 59.68 +29 00 46.5 18.7   704 – Lincoln Laboratory ETS, New Mexico MPS 34369
2000 11 30.23383 02 01 59.50 +29 00 34.0 18.6   704 – Lincoln Laboratory ETS, New Mexico MPS 34369
2000 11 30.24885 02 01 59.36 +29 00 21.0 18.8   704 – Lincoln Laboratory ETS, New Mexico MPS 34369
2000 11 30.26403 02 01 59.24 +29 00 07.9 18.8   704 – Lincoln Laboratory ETS, New Mexico MPS 34369
2000 11 30.28063 02 01 59.15 +28 59 53.7 18.9   704 – Lincoln Laboratory ETS, New Mexico MPS 34369
2000 12 04.14083 02 01 56.91 +28 06 50.5 18.3   704 – Lincoln Laboratory ETS, New Mexico MPS 34369
2000 12 04.15576 02 01 56.99 +28 06 40.4 19.3   704 – Lincoln Laboratory ETS, New Mexico MPS 34369
2000 12 04.17020 02 01 57.00 +28 06 28.6 18.8   704 – Lincoln Laboratory ETS, New Mexico MPS 34369
2000 12 04.18545 02 01 56.96 +28 06 17.5 19.0   704 – Lincoln Laboratory ETS, New Mexico MPS 34369
2000 12 30.16341 02 13 42.76 +23 38 27.7 19.7   704 – Lincoln Laboratory ETS, New Mexico MPS 34369
2000 12 30.17849 02 13 43.53 +23 38 22.7 19.6   704 – Lincoln Laboratory ETS, New Mexico MPS 34369
2000 12 30.19367 02 13 44.18 +23 38 16.6 19.6   704 – Lincoln Laboratory ETS, New Mexico MPS 34369
2004 06 15.32595 19 50 16.08 -14 59 25.3 18.8   704 – Lincoln Laboratory ETS, New Mexico MPS 109561
2004 06 15.33609 19 50 15.77 -14 59 19.4 19.4   704 – Lincoln Laboratory ETS, New Mexico MPS 109561
2004 06 15.34623 19 50 15.48 -14 59 14.0 18.9   704 – Lincoln Laboratory ETS, New Mexico MPS 109561
2004 06 15.36653 19 50 14.83 -14 59 02.5 19.2   704 – Lincoln Laboratory ETS, New Mexico MPS 109561
2004 06 18.32672 19 48 41.74 -14 31 14.4 19.2   704 – Lincoln Laboratory ETS, New Mexico MPS 109561
2004 06 18.33622 19 48 41.39 -14 31 09.2 19.3   704 – Lincoln Laboratory ETS, New Mexico MPS 109561
2004 06 18.34747 19 48 40.98 -14 31 02.1 19.1   704 – Lincoln Laboratory ETS, New Mexico MPS 109561
2004 06 18.35839 19 48 40.53 -14 30 55.8 19.0   704 – Lincoln Laboratory ETS, New Mexico MPS 109561
2004 07 16.26487 19 23 56.78 -10 20 45.5 18.5   704 – Lincoln Laboratory ETS, New Mexico MPS 110266
2004 07 16.27469 19 23 56.12 -10 20 41.2 18.1   704 – Lincoln Laboratory ETS, New Mexico MPS 110266
2004 07 16.28445 19 23 55.52 -10 20 36.2 18.3   704 – Lincoln Laboratory ETS, New Mexico MPS 110266
2004 07 16.29423 19 23 54.87 -10 20 31.9 18.6   704 – Lincoln Laboratory ETS, New Mexico MPS 110266
2004 07 16.30395 19 23 54.23 -10 20 27.1 18.4   704 – Lincoln Laboratory ETS, New Mexico MPS 110266
2004 10 18.08340 19 44 27.54 -05 25 46.4 19.1 C 704 – Lincoln Laboratory ETS, New Mexico MPS 290113
2004 10 18.09513 19 44 28.55 -05 25 43.1 20.5 C 704 – Lincoln Laboratory ETS, New Mexico MPS 290113
2004 10 18.10687 19 44 29.87 -05 25 33.7 14.2 C 704 – Lincoln Laboratory ETS, New Mexico MPS 290113
2004 10 18.13034 19 44 31.78 -05 25 37.7 18.8 C 704 – Lincoln Laboratory ETS, New Mexico MPS 290113
2004 11 12.09510 20 29 50.15 -03 50 53.0 19.4   704 – Lincoln Laboratory ETS, New Mexico MPS 119236
2004 11 12.10710 20 29 51.59 -03 50 50.6 19.4   704 – Lincoln Laboratory ETS, New Mexico MPS 119236
2004 11 12.11912 20 29 52.94 -03 50 46.9 19.5   704 – Lincoln Laboratory ETS, New Mexico MPS 119236
2005 10 01.46840 07 54 26.64 +19 08 40.7 21.8 V G96 – Mt. Lemmon Survey MPS 143447
2005 10 01.47401 07 54 26.96 +19 08 38.5 20.8 V G96 – Mt. Lemmon Survey MPS 143447
2005 10 01.47963 07 54 27.32 +19 08 35.9 21.6 V G96 – Mt. Lemmon Survey MPS 143447
2005 10 01.48527 07 54 27.72 +19 08 34.4 21.3 V G96 – Mt. Lemmon Survey MPS 143447
2009 11 16.32578 05 28 55.95 +30 52 25.1 19.8   704 – Lincoln Laboratory ETS, New Mexico MPS 303183
2009 11 16.33808 05 28 55.20 +30 52 21.5 19.9   704 – Lincoln Laboratory ETS, New Mexico MPS 303183
2009 11 16.35040 05 28 54.55 +30 52 16.4 20.2   704 – Lincoln Laboratory ETS, New Mexico MPS 303183
2009 11 23.35784 05 21 44.10 +30 05 51.0 19.4 V 691 – Steward Observatory, Kitt Peak-Spacewatch MPS 304750
2009 11 23.37594 05 21 42.89 +30 05 43.2 19.3 V 691 – Steward Observatory, Kitt Peak-Spacewatch MPS 304750
2009 11 23.39373 05 21 41.63 +30 05 35.6 19.4 V 691 – Steward Observatory, Kitt Peak-Spacewatch MPS 304750
2009 12 08.97446 05 03 32.74 +27 59 54.4 18.9 V J75 – OAM Observatory, La Sagra MPS 306591
2009 12 08.98628 05 03 31.91 +27 59 48.4 19.0 V J75 – OAM Observatory, La Sagra MPS 306591
2009 12 08.99810 05 03 31.06 +27 59 42.3 19.1 V J75 – OAM Observatory, La Sagra MPS 306591
2009 12 10.25745 05 02 03.54 +27 48 37.4 19.2   704 – Lincoln Laboratory ETS, New Mexico MPS 306591
2009 12 10.27019 05 02 02.57 +27 48 30.5 19.2   704 – Lincoln Laboratory ETS, New Mexico MPS 306591
2009 12 10.28299 05 02 01.69 +27 48 23.3 19.7   704 – Lincoln Laboratory ETS, New Mexico MPS 306591
2009 12 10.29574 05 02 00.74 +27 48 17.0 19.4   704 – Lincoln Laboratory ETS, New Mexico MPS 306591
2009 12 10.30847 05 01 59.81 +27 48 10.7 19.2   704 – Lincoln Laboratory ETS, New Mexico MPS 306591
2009 12 13.21260 04 58 42.27 +27 22 16.3 18.8 V G96 – Mt. Lemmon Survey MPS 307206
2009 12 13.21674 04 58 41.98 +27 22 14.2 18.1 V G96 – Mt. Lemmon Survey MPS 307206
2009 12 13.22079 04 58 41.73 +27 22 11.4 18.0 V G96 – Mt. Lemmon Survey MPS 307206
2009 12 13.22483 04 58 41.41 +27 22 09.9 18.7 V G96 – Mt. Lemmon Survey MPS 307206
2009 12 16.26803 04 55 22.08 +26 54 51.0 19.7   704 – Lincoln Laboratory ETS, New Mexico MPS 312213
2009 12 16.29352 04 55 20.39 +26 54 37.7 20.0   704 – Lincoln Laboratory ETS, New Mexico MPS 312213
2009 12 16.30653 04 55 19.53 +26 54 30.0 20.1   704 – Lincoln Laboratory ETS, New Mexico MPS 312213
2010 01 06.20999 04 38 47.68 +23 57 56.5 19.9 V 703 – Catalina Sky Survey MPS 310094
2010 01 06.21622 04 38 47.47 +23 57 53.3 19.6 V 703 – Catalina Sky Survey MPS 310094
2010 01 06.22245 04 38 47.32 +23 57 49.5 19.5 V 703 – Catalina Sky Survey MPS 310094
2010 01 06.22874 04 38 47.04 +23 57 47.4 20.0 V 703 – Catalina Sky Survey MPS 310094
2010 01 07.22091 04 38 19.86 +23 50 27.7 19.3 V G96 – Mt. Lemmon Survey MPS 310094
2010 01 07.22800 04 38 19.64 +23 50 24.5 19.4 V G96 – Mt. Lemmon Survey MPS 310094
